Home > Weather > Marrakech > Past weeks

Flag for Morocco Past Weather in Marrakech, Morocco — Yesterday and Last 2 Weeks

Now
100 °F

Passing clouds.


Feels Like: 95 °F
Forecast: 74 / 106 °F
Wind: 6 mph from North

Location: Marrakech Airport

Current Time: Jul 27, 2016 at 4:27:24 PM

Latest Report: Jul 27, 2016 at 4:00 PM


Visibility: N/A

Pressure: 29.98 "Hg

Humidity: 10%

Dew Point: 34 °F

Location of MarrakechLocation

Past Weather in Marrakech — Graph

°F

Marrakech Temperature Yesterday

Maximum temperature yesterday: 104 °F (at 2:30 PM)
Minimum temperature yesterday: 79 °F (at 5:30 AM)
Average temperature yesterday: 93 °F

High & Low Weather Summary for the Past Weeks

 TemperatureHumidityPressure
High113 °F (Jul 19, 3:00 PM)65% (Jul 17, 4:30 AM)30.12 "Hg (Jul 17, 4:30 AM)
Low70 °F (Jul 23, 5:30 AM)5% (Jul 15, 5:30 PM)29.83 "Hg (Jul 15, 4:00 PM)
Average91 °F26%29.96 "Hg
* Reported Jul 12 3:00 PM — Jul 27 3:00 PM, Marrakech, Weather by CustomWeather, © 2016

Note: Actual official high and low records may vary slightly from our data, if they occured in-between our weather recording intervals... More about our weather records

Advertising

Marrakech Weather History for the Previous 24 Hours

Scroll right to see more
 ConditionsComfort  
Time TempWeatherWind HumidityBarometerVisibility
3:00 PM
Wed, Jul 27
99 °FPassing clouds.5 mph10%30.01 "HgN/A
2:30 PM99 °FPassing clouds.3 mph10%30.01 "HgN/A
2:00 PM97 °FPassing clouds.5 mph12%30.04 "HgN/A
1:30 PM95 °FPassing clouds.6 mph14%30.04 "HgN/A
1:00 PM93 °FPassing clouds.2 mph15%30.07 "HgN/A
12:30 PM91 °FPassing clouds.7 mph16%30.07 "HgN/A
12:00 PM91 °FSunny.3 mph18%30.07 "Hg10 mi
11:30 AM90 °FPassing clouds.5 mph24%30.09 "HgN/A
11:00 AM86 °FPassing clouds.5 mph31%30.09 "HgN/A
10:30 AM86 °FPassing clouds.5 mph31%30.09 "HgN/A
10:00 AM82 °FPassing clouds.5 mph35%30.09 "HgN/A
9:30 AM81 °FPassing clouds.3 mph42%30.09 "HgN/A
9:00 AM79 °FPassing clouds.3 mph45%30.09 "HgN/A
8:30 AM77 °FScattered clouds.5 mph47%30.07 "HgN/A
8:00 AM75 °FPassing clouds.6 mph50%30.07 "HgN/A
7:30 AM73 °FPassing clouds.3 mph53%30.07 "HgN/A
7:00 AM75 °FPassing clouds.7 mph50%30.07 "HgN/A
6:30 AM75 °FPassing clouds.7 mph54%30.07 "HgN/A
6:00 AM75 °FPassing clouds.7 mph54%30.07 "HgN/A
5:30 AM75 °FPassing clouds.5 mph54%30.04 "HgN/A
5:00 AM75 °FPassing clouds.3 mph54%30.04 "HgN/A
4:30 AM77 °FPassing clouds.5 mph47%30.04 "HgN/A
4:00 AM79 °FPassing clouds.6 mph45%30.04 "HgN/A
3:30 AM79 °FPassing clouds.6 mph45%30.07 "HgN/A
3:00 AM79 °FPassing clouds.5 mph42%30.07 "HgN/A
2:30 AM79 °FPassing clouds.6 mph42%30.07 "HgN/A
2:00 AM82 °FPassing clouds.3 mph37%30.07 "HgN/A
1:30 AM82 °FPassing clouds.3 mph35%30.09 "Hg5 mi
1:00 AM86 °FPassing clouds.2 mph31%30.09 "Hg5 mi
12:30 AM86 °FPassing clouds.5 mph29%30.09 "Hg5 mi
12:00 AM84 °FPassing clouds.5 mph33%30.09 "Hg5 mi
11:30 PM
Tue, Jul 26
86 °FPassing clouds.5 mph31%30.09 "Hg5 mi
11:00 PM86 °FPassing clouds.3 mph29%30.12 "Hg5 mi
10:30 PM90 °FPassing clouds.8 mph26%30.12 "Hg5 mi
10:00 PM91 °FPassing clouds.6 mph23%30.09 "Hg5 mi
9:30 PM93 °FPassing clouds.8 mph20%30.09 "Hg5 mi
9:00 PM95 °FPassing clouds.5 mph16%30.09 "Hg5 mi
8:30 PM97 °FScattered clouds.7 mph14%30.07 "Hg5 mi
8:00 PM99 °FScattered clouds.13 mph14%30.07 "HgN/A
7:30 PM100 °FScattered clouds.12 mph12%30.04 "HgN/A
7:00 PM102 °FScattered clouds.9 mph11%30.04 "HgN/A
6:30 PM102 °FScattered clouds.13 mph10%30.01 "HgN/A
6:00 PM104 °FScattered clouds.13 mph9%30.01 "HgN/A
5:30 PM104 °FScattered clouds.9 mph11%30.01 "HgN/A
5:00 PM102 °FScattered clouds.9 mph12%30.04 "HgN/A
4:30 PM102 °FScattered clouds.9 mph12%30.01 "HgN/A
4:00 PM102 °FScattered clouds.10 mph12%30.04 "HgN/A
Weather by CustomWeather, © 2016

See weather overviewHow to use our weather pages